Weather History for KDDC - March, 2013

Change the Weather History Date:

Sunday, March 3, 2013

  Actual Average Record
Temperature  
Mean Temperature 44 °F -  
Max Temperature 59 °F 50 °F 78 °F (1946)
Min Temperature 28 °F 26 °F -12 °F (1960)
Degree Days  
Heating Degree Days 22    
Moisture  
Dew Point 34 °F    
Average Humidity 66    
Maximum Humidity 85    
Minimum Humidity 35    
Precipitation  
Precipitation 0.00 in - - ()
Sea Level Pressure  
Sea Level Pressure 29.77 in    
Wind  
Wind Speed 9 mph (South)    
Max Wind Speed 17 mph    
Max Gust Speed 24 mph    
Visibility 10 miles    
Events      
Averages and records for this station are not official NWS values.
T = Trace of Precipitation, MM = Missing Value Source: NWS Daily Summary

Daily Weather History Graph

Daily Weather History Graph

Search for Another Location

Airport or City:

Trip Planner

Search our weather history database for the weather conditions in past years. The results will help you decide how hot, cold, wet, or windy it might be!

Date:

Astronomy

Mar. 03, 2013 Rise Set
Actual Time 7:08 AM CST 6:35 PM CST
Civil Twilight 6:41 AM CST 7:02 PM CST
Nautical Twilight 6:11 AM CST 7:32 PM CST
Astronomical Twilight 5:41 AM CST 8:02 PM CST
Moon 12:09 AM CST (3/3) 10:31 AM CST (3/3)
Length of Visible Light 12h 20m
Length of Day
11h 27m
Waning Gibbous, 63% of the Moon is Illuminated
Mar 3
Waning Gibbous
Mar 4
Last Quarter
Mar 11
New
Mar 19
First Quarter
Mar 27
Full

Hourly Weather History & Observations

Time (CST) Temp. Windchill Dew Point Humidity Pressure Visibility Wind Dir Wind Speed Gust Speed Precip Events Conditions
12:52 AM 34.0 °F 28.0 °F 30.0 °F 85% 30.09 in 7.0 mi SSW 6.9 mph - N/A   Clear
1:52 AM 36.0 °F 29.6 °F 30.9 °F 82% 30.06 in 8.0 mi SW 8.1 mph - N/A   Clear
2:52 AM 37.9 °F 30.5 °F 30.9 °F 76% 30.01 in 10.0 mi WSW 11.5 mph - N/A   Clear
3:52 AM 39.0 °F 31.8 °F 30.0 °F 70% 29.96 in 10.0 mi WSW 11.5 mph - N/A   Clear
4:52 AM 36.0 °F 28.5 °F 28.9 °F 76% 29.95 in 10.0 mi WSW 10.4 mph - N/A   Clear
5:52 AM 37.0 °F 31.6 °F 28.9 °F 73% 29.94 in 10.0 mi WSW 6.9 mph - N/A   Clear
6:52 AM 30.0 °F 22.4 °F 26.1 °F 85% 29.93 in 9.0 mi SSW 8.1 mph - N/A   Clear
7:52 AM 35.1 °F 27.9 °F 28.0 °F 76% 29.91 in 10.0 mi SSW 9.2 mph - N/A   Clear
8:52 AM 37.9 °F 32.1 °F 30.9 °F 76% 29.89 in 10.0 mi SSW 8.1 mph - N/A   Clear
9:52 AM 43.0 °F 37.2 °F 33.1 °F 68% 29.86 in 10.0 mi South 10.4 mph - N/A   Clear
10:52 AM 48.0 °F - 32.0 °F 54% 29.82 in 10.0 mi SSW 13.8 mph - N/A   Clear
11:52 AM 53.1 °F - 35.1 °F 50% 29.77 in 10.0 mi SSW 11.5 mph - N/A   Clear
12:52 PM 57.9 °F - 37.0 °F 46% 29.72 in 10.0 mi South 15.0 mph - N/A   Clear
1:52 PM 57.0 °F - 37.0 °F 47% 29.68 in 10.0 mi South 15.0 mph - N/A   Clear
2:52 PM 57.9 °F - 37.9 °F 47% 29.64 in 10.0 mi South 17.3 mph 24.2 mph N/A   Clear
3:52 PM 57.0 °F - 39.9 °F 53% 29.63 in 10.0 mi South 10.4 mph - N/A   Clear
4:52 PM 59.0 °F - 39.9 °F 49% 29.61 in 10.0 mi South 11.5 mph - N/A   Clear
5:52 PM 55.0 °F - 39.9 °F 57% 29.61 in 10.0 mi South 9.2 mph - N/A   Clear
6:52 PM 45.0 °F 41.8 °F 39.0 °F 80% 29.63 in 10.0 mi SE 5.8 mph - N/A   Clear
7:52 PM 42.1 °F 38.4 °F 36.0 °F 79% 29.63 in 10.0 mi ESE 5.8 mph - N/A   Clear
8:52 PM 39.9 °F 37.8 °F 35.1 °F 83% 29.63 in 10.0 mi NNE 3.5 mph - N/A   Clear
9:52 PM 39.9 °F 37.8 °F 35.1 °F 83% 29.61 in 10.0 mi ENE 3.5 mph - N/A   Clear
10:52 PM 41.0 °F 37.1 °F 35.1 °F 79% 29.57 in 10.0 mi SE 5.8 mph - N/A   Clear
11:52 PM 41.0 °F 36.4 °F 35.1 °F 79% 29.57 in 10.0 mi NE 6.9 mph - N/A   Clear